| time (UTC) | temp F | wind direction | speed MPH | gust MPH | rain 1hr in | rain 24hr in | rain mn in | humidity % | barometer mb |
| 20260504205949 | 76 | 338 | 4.0 | 7.0 | 0.00 | 0.00 | 0.00 | 2 | 1010.3 |
| 20260504204450 | 77 | 114 | 1.0 | 7.0 | 0.00 | 0.00 | 0.00 | 2 | 1010.3 |
| 20260504202948 | 77 | 222 | 3.0 | 11.0 | 0.00 | 0.00 | 0.00 | 2 | 1010.3 |
| 20260504201532 | 75 | 204 | 6.0 | 11.0 | 0.00 | 0.00 | 0.00 | 2 | 1010.5 |
| 20260504201450 | 75 | 204 | 6.0 | 11.0 | 0.00 | 0.00 | 0.00 | 2 | 1010.5 |
| 20260504200027 | 75 | 201 | 0.0 | 4.0 | 0.00 | 0.00 | 0.00 | 2 | 1010.6 |
| 20260504195949 | 75 | 201 | 0.0 | 4.0 | 0.00 | 0.00 | 0.00 | 2 | 1010.6 |
| 20260504194449 | 74 | 252 | 2.0 | 11.0 | 0.00 | 0.00 | 0.00 | 2 | 1010.8 |
| 20260504192948 | 74 | 296 | 4.0 | 9.0 | 0.00 | 0.00 | 0.00 | 3 | 1010.8 |
| 20260504191449 | 74 | 214 | 5.0 | 12.0 | 0.00 | 0.00 | 0.00 | 3 | 1011.2 |
| 20260504184449 | 74 | 210 | 3.0 | 8.0 | 0.00 | 0.00 | 0.00 | 3 | 1011.4 |
| 20260504183037 | 73 | 248 | 2.0 | 10.0 | 0.00 | 0.00 | 0.00 | 3 | 1012.0 |
| 20260504182948 | 73 | 248 | 2.0 | 10.0 | 0.00 | 0.00 | 0.00 | 3 | 1012.0 |
| 20260504181450 | 74 | 247 | 0.0 | 9.0 | 0.00 | 0.00 | 0.00 | 3 | 1012.0 |
| 20260504174449 | 72 | 175 | 4.0 | 5.0 | 0.00 | 0.00 | 0.00 | 3 | 1012.2 |
| 20260504172950 | 72 | 267 | 0.0 | 7.0 | 0.00 | 0.00 | 0.00 | 3 | 1012.5 |
| 20260504171449 | 71 | 282 | 2.0 | 11.0 | 0.00 | 0.00 | 0.00 | 3 | 1012.7 |
| 20260504130122 | 59 | 121 | 2.0 | 7.0 | 0.00 | 0.00 | 0.00 | 5 | 1015.1 |
| 20260504081449 | 44 | 0 | 0.0 | 1.0 | 0.00 | 0.00 | 0.00 | 6 | 1015.0 |
| 20260504045951 | 46 | 0 | 0.0 | 0.0 | 0.00 | 0.00 | 0.00 | 5 | 1014.5 |
| 20260504044448 | 46 | 0 | 0.0 | 0.0 | 0.00 | 0.00 | 0.00 | 5 | 1014.5 |
| 20260504043617 | 46 | 0 | 0.0 | 0.0 | 0.00 | 0.00 | 0.00 | 5 | 1014.3 |
| 20260504042948 | 46 | 0 | 0.0 | 0.0 | 0.00 | 0.00 | 0.00 | 5 | 1014.3 |
| 20260504041449 | 46 | 0 | 0.0 | 0.0 | 0.00 | 0.00 | 0.00 | 5 | 1014.3 |
| 20260504035949 | 45 | 0 | 0.0 | 0.0 | 0.00 | 0.00 | 0.00 | 5 | 1014.1 |
| 20260504034448 | 46 | 0 | 0.0 | 0.0 | 0.00 | 0.00 | 0.00 | 5 | 1014.0 |
| 20260504032948 | 45 | 0 | 0.0 | 0.0 | 0.00 | 0.00 | 0.00 | 5 | 1014.0 |
| 20260504031449 | 44 | 0 | 0.0 | 0.0 | 0.00 | 0.00 | 0.00 | 5 | 1014.0 |
| 20260504025949 | 45 | 0 | 0.0 | 0.0 | 0.00 | 0.00 | 0.00 | 5 | 1013.8 |
| 20260504024448 | 44 | 0 | 0.0 | 0.0 | 0.00 | 0.00 | 0.00 | 5 | 1014.0 |
| 20260504021449 | 45 | 0 | 0.0 | 0.0 | 0.00 | 0.00 | 0.00 | 5 | 1014.0 |
| 20260504015948 | 45 | 0 | 0.0 | 0.0 | 0.00 | 0.00 | 0.00 | 5 | 1013.8 |
| 20260504014448 | 45 | 0 | 0.0 | 0.0 | 0.00 | 0.00 | 0.00 | 5 | 1013.8 |
| 20260504012949 | 46 | 0 | 0.0 | 0.0 | 0.00 | 0.00 | 0.00 | 5 | 1013.5 |
| 20260504011448 | 47 | 0 | 0.0 | 0.0 | 0.00 | 0.00 | 0.00 | 5 | 1013.3 |
| 20260504005948 | 49 | 0 | 0.0 | 0.0 | 0.00 | 0.00 | 0.00 | 4 | 1013.1 |
| 20260504004448 | 50 | 0 | 0.0 | 0.0 | 0.00 | 0.00 | 0.00 | 4 | 1012.9 |
| 20260504002950 | 52 | 0 | 0.0 | 0.0 | 0.00 | 0.00 | 0.00 | 4 | 1012.6 |
| 20260504001449 | 54 | 0 | 0.0 | 0.0 | 0.00 | 0.00 | 0.00 | 3 | 1012.5 |
| 20260503235948 | 55 | 0 | 0.0 | 0.0 | 0.00 | 0.00 | 0.00 | 3 | 1012.4 |
| 20260503232949 | 59 | 239 | 1.0 | 4.0 | 0.00 | 0.00 | 0.00 | 2 | 1012.2 |
| 20260503225950 | 61 | 248 | 3.0 | 7.0 | 0.00 | 0.00 | 0.00 | 2 | 1012.1 |
| 20260503224450 | 62 | 249 | 2.0 | 9.0 | 0.00 | 0.00 | 0.00 | 2 | 1011.9 |
| 20260503222950 | 63 | 85 | 0.0 | 5.0 | 0.00 | 0.00 | 0.00 | 2 | 1011.9 |
| 20260503221448 | 62 | 252 | 2.0 | 11.0 | 0.00 | 0.00 | 0.00 | 2 | 1011.9 |
| 20260503220209 | 63 | 247 | 0.0 | 3.0 | 0.00 | 0.00 | 0.00 | 2 | 1012.0 |
| 20260503215948 | 63 | 247 | 0.0 | 3.0 | 0.00 | 0.00 | 0.00 | 2 | 1012.0 |
| 20260503214449 | 63 | 294 | 4.0 | 11.0 | 0.00 | 0.00 | 0.00 | 2 | 1011.9 |